Regional Weather Roundup
Issued by NWS State College, PA

Home | Current Version | Previous Version | Text Only | Print | Product List | Glossary On
Versions: 1 2 3 4 5 6 7 8 9 10 11 12 13 14 15 16 17 18 19 20 21 22 23 24 25 26 27 28 29 30 31 32 33 34 35 36 37 38 39 40 41 42 43 44 45 46 47 48 49 50
000
ASUS41 KCTP 130310
RWRCTP

REGIONAL WEATHER ROUNDUP
NATIONAL WEATHER SERVICE STATE COLLEGE PA
1000 PM EST TUE DEC 12 2017

Note: "fair" indicates few or no clouds below 12,000 feet with no
significant weather and/or obstructions to visibility.

* = STATION THAT DOES NOT REPORT PRECIPITATION /E.G. RAIN...SNOW...ETC/
    THUNDER OR FOG.

PAZ002>004-007>009-013>016-020>023-029>032-130400-
WESTERN PENNSYLVANIA

CITY           SKY/WX    TMP DP  RH WIND       PRES   REMARKS
ERIE           CLOUDY    19   7  59 W21G30    29.73F HAZE    WCI   3
MEADVILLE      LGT SNOW  12   9  87 W8        29.72F VSB 1   WCI   0
FRANKLIN*      FLURRIES  10   6  84 W10       29.70F WCI  -4
NEW CASTLE     NOT AVBL
BEAVER COUNTY  NOT AVBL
BUTLER*        PTCLDY    11   8  88 W8        29.76F WCI  -1
PITTSBURGH INT FLURRIES  17   9  70 W10       29.78F WCI   5
PITTSBURGH     MOCLDY    14   6  70 W10G21    29.77F WCI   1
INDIANA*       CLOUDY    14   7  73 NW12G20   29.76S WCI   0
LATROBE        FLURRIES  16   9  73 W17       29.77F WCI   0
WASHINGTON CO* PTCLDY    15   4  61 W10       29.84S WCI   2
$$

PAZ004>006-010>012-017>019-024>028-033>037-041-042-045-046-049>053-130400-
CENTRAL PENNSYLVANIA

CITY           SKY/WX    TMP DP  RH WIND       PRES   REMARKS
BRADFORD       LGT SNOW   9   5  84 W10G18    29.55F FOG     WCI  -5
DUBOIS         CLEAR      9   2  73 W12G21    29.64S WCI  -6
CLEARFIELD     CLEAR     11   4  73 W10G20    29.66F WCI  -3
JOHNSTOWN      MIX PCPN  11   3  70 NW20G31   29.61F WCI  -7
ALTOONA        CLOUDY    17   3  54 W20G28    29.67F WCI   1
STATE COLLEGE  CLEAR     14   3  62 W14G26    29.67F WCI  -1
WILLIAMSPORT   CLEAR     21   4  47 W15       29.65F WCI   8
SELINSGROVE    CLEAR     20   2  45 W17G25    29.68F WCI   5
FT INDIANTOWN  PTCLDY    21  -3  35 W15G28    29.63F WCI   7
CAPITAL CITY   PTCLDY    23  -1  35 NW17G32   29.68F WCI   9
HARRISBURG     PTCLDY    22   3  44 NW25G36   29.67S WCI   5
YORK           CLEAR     22   1  40 NW20G35   29.67S WCI   7
$$

PAZ038>040-043-044-047-048-054-055-060>062-067>071-130400-
EASTERN PENNSYLVANIA

CITY           SKY/WX    TMP DP  RH WIND       PRES   REMARKS
SCRANTON       CLOUDY    23   7  50 NW18G25   29.53F WCI   9
MOUNT POCONO   MIX PCPN  18   8  65 NW23G32   29.41F WCI   0
ALLENTOWN      PTCLDY    26   6  42 W23G38    29.55R WCI  11
QUAKERTOWN*    PTCLDY    25   7  46 W17       29.56S WCI  11
READING        CLEAR     23   3  42 W26G35    29.60F WCI   6
LANCASTER      PTCLDY    23   6  48 NW25G38   29.63F WCI   7
COATESVILLE    CLEAR     23   3  42 NW25G31   29.59F WCI   7
POTTSTOWN      CLEAR     23   7  50 W17G29    29.59F WCI   9
BLUE BELL      CLEAR     27  10  50 W8G17     29.57F
DOYLESTOWN     CLEAR     26  10  50 NW14G23   29.52F WCI  14
WILLOW GROVE   NOT AVBL
NORTH PHILA    CLEAR     29  10  45 W20G35    29.55F
PHILADELPHIA   CLEAR     29   6  38 NW24G37   29.57F WCI  15
$$




USA.gov is the U.S. government's official web portal to all federal, state and local government web resources and services.